Meling Ranch Airstrip

Jump to: basic info | weather | comments

Related pages: nearby airports | nearby navaids

Basic information (top)

Codes: MSJG
Location: lon 30.975328, lat -115.737877
Status: small_airport

Weather (top)

Current conditions for General Rodolfo Sánchez Taboada International Airport 103nm (190km) NNE (rec'd 2015/04/24 23:42Z):

MMML 242342Z 30011KT 10SM FEW040 27/05 A2983 RMK SLP102 57017 927 8/100

Airport forecast for General Rodolfo Sánchez Taboada International Airport 103nm (190km) NNE (rec'd 2015/04/24 06:12Z):

TAF MMML 240506Z 2406/2506 30005KT P6SM SCT250 
     FM241700 30010KT P6SM SCT250 
     FM250200 30005KT P6SM SCT250

Latest comments (top)

No comments yet for Meling Ranch Airstrip

More... (top)

See also NOTAMs and nearby airports and navaids, or visit the Meling Ranch Airstrip page at the main OurAirports website..